This demonstration page uses our WeatherBlox Daily Observations layout. Learn more.

Left ArrowRight Arrow

38.83388, -104.82136

Hourly Observations for August 26, 2022

Temp ( °F °C ) Dew Point ( °F °C ) Humidity (%) Winds ( mph kmh ) Pressure ( in mb ) Visibility ( mi km ) Precip ( " mm )
12:55 am 00:55 Mostly Cloudy 67 19.4 44 6.5 43 43 NW 7 11 29.57 1001 10 16 0.00 0.00
1:55 am 01:55 Cloudy 67 19.3 43 6.1 42 42 NW 7 11 29.57 1001 10 16 0.00 0.00
2:55 am 02:55 Cloudy 66 18.7 43 6.2 44 44 Calm 29.50 999 10 16 0.00 0.00
3:55 am 03:55 Cloudy 65 18.1 44 6.6 47 47 Calm 29.49 999 10 16 0.00 0.00
4:55 am 04:55 Cloudy 64 17.7 44 6.8 49 49 NW 5 7 29.48 998 10 16 0.00 0.00
5:55 am 05:55 Cloudy 64 17.7 44 6.5 48 48 N 5 7 29.47 998 10 16 0.00 0.00
6:55 am 06:55 Cloudy 64 17.7 44 6.5 48 48 Calm 29.51 999 10 16 0.00 0.00
8:55 am 08:55 Sunny 69 20.8 47 8.1 44 44 SE 3 6 29.72 1007 9 14 0.00 0.00
9:55 am 09:55 Partly Cloudy 69 20.4 47 8.1 45 45 SE 5 7 29.74 1007 10 16 0.00 0.00
10:55 am 10:55 Sunny 74 23.3 48 8.9 40 40 SE 9 15 29.78 1008 10 16 0.00 0.00
11:55 am 11:55 Mostly Cloudy 75 24.1 49 9.6 40 40 ENE 5 7 29.84 1010 10 16 0.00 0.00
12:56 pm 12:56 Cloudy 74 23.1 47 8.4 39 39 S 5 7 29.70 1006 10 16 0.00 0.00
12:59 pm 12:59 Cloudy with Light Rain 73 23 48 9 41 41 S 6 9 29.69 1006 10 16 0.00 0.00
1:25 pm 13:25 Cloudy with Nearby Thunderstorms 72 22 52 11 50 50 WNW 3 6 29.51 999 10 16 0.00 0.00
1:56 pm 13:56 Cloudy 72 22.3 48 8.8 42 42 WNW 7 11 29.60 1002 10 16 0.01 0.13
2:56 pm 14:56 Cloudy with Nearby Thunderstorms 70 21.2 49 9.4 47 47 NNW 9 15 29.56 1001 10 16 0.00 0.00
3:21 pm 15:21 Cloudy with Thunderstorms 70 21 50 10 49 49 N 6 9 29.56 1001 10 16 0.00 0.00
3:36 pm 15:36 Cloudy with Nearby Thunderstorms 70 21 50 10 49 49 WNW 20 31 29.51 999 10 16 0.00 0.00
3:56 pm 15:56 Cloudy with Light Rain 65 18.4 49 9.2 55 55 WNW 17 28 29.36 994 10 16 0.01 0.13
4:11 pm 16:11 Cloudy 66 19 46 8 49 49 WNW 16 26 29.33 993 10 16 0.00 0.00
4:51 pm 16:51 Cloudy with Light Rain 66 19 45 7 46 46 W 14 22 29.45 997 10 16 0.00 0.00
4:56 pm 16:56 Cloudy with Light Rain 66 18.8 47 8.2 50 50 WNW 16 26 29.43 997 10 16 0.01 0.13
5:22 pm 17:22 Cloudy 66 19 50 10 56 56 NE 7 11 29.35 994 10 16 0.00 0.00
5:56 pm 17:56 Cloudy 67 19.2 48 8.8 51 51 NW 8 13 29.45 997 10 16 0.01 0.25
6:56 pm 18:56 Cloudy 68 20 45 7.4 44 44 WNW 12 19 29.49 999 10 16 0.00 0.00
7:56 pm 19:56 Cloudy 66 18.8 47 8.4 51 51 Calm 29.48 998 10 16 0.00 0.00
8:56 pm 20:56 Cloudy 67 19.2 45 7.3 46 46 NW 8 13 29.47 998 10 16 0.00 0.00
9:56 pm 21:56 Mostly Cloudy 66 18.7 47 8.6 52 52 NW 13 20 29.45 997 10 16 0.00 0.00
10:56 pm 22:56 Cloudy 65 18.6 46 7.7 49 49 NW 13 20 29.47 998 10 16 0.00 0.00
11:56 pm 23:56 Cloudy 63 17.3 47 8.4 56 56 SSW 3 6 29.42 996 10 16 0.00 0.00

Powered by AerisWeather